Weather History for Fairbanks, AK

Change the Weather History Date:

Saturday, May 11, 2013

  Actual Average Record
Temperature  
Mean Temperature 47 °F 48 °F  
Max Temperature 58 °F 59 °F 88 °F (1995)
Min Temperature 36 °F 36 °F 19 °F (1964)
Degree Days  
Heating Degree Days 18 18  
Month to date heating degree days 328 218  
Since 1 July heating degree days 14487 13242  
Cooling Degree Days 0 0  
Month to date cooling degree days 0 0  
Year to date cooling degree days 0 0  
Moisture  
Dew Point 26 °F    
Average Humidity 41    
Maximum Humidity 73    
Minimum Humidity 16    
Precipitation  
Precipitation 0.00 in 0.02 in 0.47 in (1968)
Month to date precipitation 0.11 0.18  
Year to date precipitation 2.30 1.74  
Snow  
Snow 0.00 in 0.00 in 2.70 in (1968)
Month to date snowfall 1.7 0.5  
Since 1 July snowfall 68.3 64.6  
Snow Depth 2.00 in    
Sea Level Pressure  
Sea Level Pressure 29.79 in    
Wind  
Wind Speed 4 mph (WSW)    
Max Wind Speed 13 mph    
Max Gust Speed -    
Visibility 10 miles    
Events      
T = Trace of Precipitation, MM = Missing Value Source: NWS Daily Summary

Daily Weather History Graph

Daily Weather History Graph

Search for Another Location

Airport:

Trip Planner

Search our weather history database for the weather conditions in past years. The results will help you decide how hot, cold, wet, or windy it might be!

Date:

Astronomy

May. 11, 2013 Rise Set
Actual Time 4:41 AM AKDT 10:56 PM AKDT
Civil Twilight 3:02 AM AKDT 12:41 AM AKDT
Nautical Twilight Sun does not rise Sun does not rise
Astronomical Twilight Sun does not rise Sun does not rise
Moon 5:43 AM AKDT (5/11) 12:03 AM AKDT (5/11)
Length of Visible Light 21h 38m
Length of Day
18h 15m
Waxing Crescent, 3% of the Moon is Illuminated
May 11
Waxing Crescent
May 17
First Quarter
May 24
Full
May 31
Last Quarter
Jun 8
New

Hourly Weather History & Observations

Time (AKDT) Temp. Windchill Dew Point Humidity Pressure Visibility Wind Dir Wind Speed Gust Speed Precip Events Conditions
12:53 AM 42.1 °F 40.2 °F 26.1 °F 53% 29.94 in 10.0 mi NE 3.5 mph - N/A   Mostly Cloudy
1:53 AM 39.0 °F - 28.0 °F 65% 29.93 in 10.0 mi Calm Calm - N/A   Mostly Cloudy
2:53 AM 39.9 °F - 26.1 °F 58% 29.92 in 10.0 mi Calm Calm - N/A   Mostly Cloudy
3:53 AM 41.0 °F - 25.0 °F 53% 29.90 in 10.0 mi Calm Calm - N/A   Overcast
4:53 AM 37.0 °F - 27.0 °F 67% 29.89 in 10.0 mi Calm Calm - N/A   Mostly Cloudy
5:53 AM 37.0 °F - 28.9 °F 73% 29.88 in 10.0 mi Calm Calm - N/A   Mostly Cloudy
6:53 AM 39.0 °F 36.8 °F 25.0 °F 57% 29.87 in 10.0 mi NNE 3.5 mph - N/A   Mostly Cloudy
7:53 AM 41.0 °F 38.0 °F 26.1 °F 55% 29.86 in 10.0 mi NE 4.6 mph - N/A   Mostly Cloudy
8:53 AM 44.1 °F 42.5 °F 26.1 °F 49% 29.85 in 10.0 mi South 3.5 mph - N/A   Mostly Cloudy
9:53 AM 48.0 °F - 26.1 °F 42% 29.83 in 10.0 mi Calm Calm - N/A   Mostly Cloudy
10:53 AM 50.0 °F - 25.0 °F 38% 29.81 in 10.0 mi South 4.6 mph - N/A   Mostly Cloudy
11:53 AM 53.1 °F - 24.1 °F 32% 29.79 in 10.0 mi South 5.8 mph - N/A   Mostly Cloudy
12:53 PM 54.0 °F - 24.1 °F 31% 29.78 in 10.0 mi SSW 6.9 mph - N/A   Mostly Cloudy
1:53 PM 55.0 °F - 24.1 °F 30% 29.75 in 10.0 mi SSW 8.1 mph - N/A   Mostly Cloudy
2:53 PM 57.0 °F - 23.0 °F 27% 29.74 in 10.0 mi Variable 5.8 mph - N/A   Mostly Cloudy
3:53 PM 57.9 °F - 24.1 °F 27% 29.72 in 10.0 mi WSW 6.9 mph - N/A   Mostly Cloudy
4:53 PM 57.0 °F - 24.1 °F 28% 29.70 in 10.0 mi South 8.1 mph - N/A   Mostly Cloudy
5:53 PM 57.0 °F - 26.1 °F 30% 29.68 in 10.0 mi West 10.4 mph - N/A   Mostly Cloudy
6:53 PM 55.9 °F - 25.0 °F 30% 29.68 in 10.0 mi West 12.7 mph - N/A   Mostly Cloudy
7:53 PM 55.0 °F - 26.1 °F 33% 29.67 in 10.0 mi West 12.7 mph - N/A   Overcast
8:53 PM 54.0 °F - 26.1 °F 34% 29.67 in 10.0 mi West 8.1 mph - N/A   Mostly Cloudy
9:53 PM 53.1 °F - 27.0 °F 37% 29.68 in 10.0 mi NW 8.1 mph - N/A   Mostly Cloudy
10:53 PM 51.1 °F - 27.0 °F 39% 29.68 in 10.0 mi NW 6.9 mph - N/A   Mostly Cloudy
11:53 PM 48.9 °F - 27.0 °F 43% 29.67 in 10.0 mi WNW 5.8 mph - N/A   Overcast